| time (UTC) | temp F | wind direction | speed MPH | gust MPH | rain 1hr in | rain 24hr in | rain mn in | humidity % | barometer mb |
| 20260502233523 | 44 | 299 | 0.0 | 0.0 | 0.00 | 0.01 | 0.01 | 62 | 1007.0 |
| 20260502233021 | 44 | 269 | 0.0 | 0.0 | 0.00 | 0.01 | 0.01 | 62 | 1007.3 |
| 20260502232517 | 44 | 268 | 0.0 | 0.0 | 0.00 | 0.01 | 0.01 | 62 | 1007.1 |
| 20260502232014 | 45 | 279 | 2.0 | 2.0 | 0.00 | 0.01 | 0.01 | 60 | 1007.0 |
| 20260502231511 | 45 | 268 | 0.0 | 0.0 | 0.00 | 0.01 | 0.01 | 62 | 1006.9 |
| 20260502231009 | 45 | 267 | 0.0 | 0.0 | 0.00 | 0.01 | 0.01 | 61 | 1007.0 |
| 20260502230507 | 45 | 270 | 0.0 | 0.0 | 0.00 | 0.01 | 0.01 | 60 | 1007.0 |
| 20260502230006 | 45 | 281 | 0.0 | 1.0 | 0.00 | 0.01 | 0.01 | 61 | 1006.9 |
| 20260502225500 | 45 | 274 | 0.0 | 1.0 | 0.00 | 0.01 | 0.01 | 59 | 1006.9 |
| 20260502224958 | 45 | 253 | 0.0 | 0.0 | 0.00 | 0.01 | 0.01 | 60 | 1007.0 |
| 20260502224454 | 45 | 258 | 0.0 | 1.0 | 0.00 | 0.01 | 0.01 | 61 | 1006.9 |
| 20260502223951 | 45 | 263 | 0.0 | 0.0 | 0.00 | 0.01 | 0.01 | 58 | 1007.1 |
| 20260502223449 | 45 | 174 | 1.0 | 1.0 | 0.00 | 0.01 | 0.01 | 59 | 1007.0 |
| 20260502222947 | 45 | 268 | 2.0 | 2.0 | 0.00 | 0.01 | 0.01 | 61 | 1007.1 |
| 20260502222444 | 46 | 259 | 1.0 | 1.0 | 0.00 | 0.01 | 0.01 | 61 | 1007.0 |
| 20260502221944 | 46 | 273 | 1.0 | 2.0 | 0.00 | 0.01 | 0.01 | 61 | 1007.0 |
| 20260502221441 | 46 | 310 | 1.0 | 1.0 | 0.00 | 0.01 | 0.01 | 62 | 1007.0 |
| 20260502220938 | 45 | 273 | 1.0 | 1.0 | 0.00 | 0.01 | 0.01 | 62 | 1007.0 |
| 20260502220434 | 46 | 262 | 1.0 | 1.0 | 0.00 | 0.01 | 0.01 | 63 | 1007.2 |
| 20260502215931 | 46 | 260 | 1.0 | 1.0 | 0.00 | 0.01 | 0.01 | 63 | 1006.9 |
| 20260502215428 | 46 | 19 | 2.0 | 3.0 | 0.00 | 0.01 | 0.01 | 62 | 1007.1 |
| 20260502214925 | 46 | 274 | 1.0 | 2.0 | 0.00 | 0.01 | 0.01 | 63 | 1006.7 |
| 20260502214421 | 47 | 251 | 2.0 | 4.0 | 0.00 | 0.01 | 0.01 | 62 | 1006.8 |
| 20260502213919 | 46 | 280 | 0.0 | 0.0 | 0.00 | 0.01 | 0.01 | 56 | 1006.8 |
| 20260502213416 | 47 | 99 | 2.0 | 3.0 | 0.00 | 0.01 | 0.01 | 58 | 1006.7 |
| 20260502212915 | 47 | 285 | 2.0 | 2.0 | 0.00 | 0.01 | 0.01 | 57 | 1006.7 |
| 20260502212413 | 47 | 261 | 1.0 | 1.0 | 0.00 | 0.01 | 0.01 | 55 | 1006.8 |
| 20260502211910 | 47 | 164 | 0.0 | 1.0 | 0.00 | 0.01 | 0.01 | 54 | 1006.5 |
| 20260502211405 | 47 | 294 | 2.0 | 3.0 | 0.00 | 0.01 | 0.01 | 56 | 1006.5 |
| 20260502210903 | 47 | 216 | 3.0 | 3.0 | 0.00 | 0.01 | 0.01 | 52 | 1006.7 |
| 20260502210400 | 47 | 259 | 1.0 | 1.0 | 0.00 | 0.01 | 0.01 | 54 | 1006.7 |
| 20260502205857 | 47 | 20 | 2.0 | 3.0 | 0.00 | 0.01 | 0.01 | 57 | 1006.6 |
| 20260502205353 | 47 | 282 | 2.0 | 2.0 | 0.00 | 0.01 | 0.01 | 58 | 1006.7 |
| 20260502204850 | 47 | 127 | 1.0 | 2.0 | 0.00 | 0.01 | 0.01 | 59 | 1006.7 |
| 20260502204347 | 48 | 275 | 0.0 | 1.0 | 0.00 | 0.01 | 0.01 | 61 | 1006.5 |
| 20260502203845 | 47 | 236 | 0.0 | 0.0 | 0.00 | 0.01 | 0.01 | 60 | 1006.6 |
| 20260502203343 | 47 | 272 | 0.0 | 1.0 | 0.00 | 0.01 | 0.01 | 62 | 1006.7 |
| 20260502202838 | 46 | 141 | 1.0 | 2.0 | 0.00 | 0.01 | 0.01 | 61 | 1006.7 |
| 20260502202335 | 46 | 236 | 4.0 | 4.0 | 0.00 | 0.01 | 0.01 | 58 | 1006.8 |
| 20260502201833 | 46 | 350 | 1.0 | 1.0 | 0.00 | 0.01 | 0.01 | 62 | 1006.6 |
| 20260502201329 | 46 | 275 | 1.0 | 1.0 | 0.00 | 0.01 | 0.01 | 60 | 1006.7 |
| 20260502200825 | 47 | 302 | 1.0 | 2.0 | 0.00 | 0.01 | 0.01 | 61 | 1006.8 |
| 20260502200321 | 46 | 250 | 1.0 | 1.0 | 0.00 | 0.01 | 0.01 | 62 | 1006.8 |
| 20260502195819 | 46 | 256 | 0.0 | 0.0 | 0.00 | 0.01 | 0.01 | 61 | 1006.8 |
| 20260502195316 | 47 | 330 | 1.0 | 1.0 | 0.00 | 0.01 | 0.01 | 61 | 1006.7 |
| 20260502194813 | 47 | 54 | 3.0 | 4.0 | 0.00 | 0.01 | 0.01 | 62 | 1006.7 |
| 20260502194309 | 48 | 264 | 0.0 | 1.0 | 0.00 | 0.01 | 0.01 | 59 | 1006.8 |
| 20260502193805 | 48 | 90 | 4.0 | 7.0 | 0.00 | 0.01 | 0.01 | 54 | 1006.7 |
| 20260502193303 | 47 | 284 | 0.0 | 1.0 | 0.00 | 0.01 | 0.01 | 54 | 1006.8 |
| 20260502192758 | 47 | 275 | 1.0 | 2.0 | 0.00 | 0.01 | 0.01 | 57 | 1006.8 |
| 20260502192255 | 47 | 326 | 1.0 | 2.0 | 0.00 | 0.01 | 0.01 | 55 | 1006.9 |
| 20260502191752 | 47 | 279 | 1.0 | 2.0 | 0.00 | 0.01 | 0.01 | 55 | 1007.0 |
| 20260502191250 | 47 | 355 | 1.0 | 1.0 | 0.00 | 0.01 | 0.01 | 59 | 1006.9 |
| 20260502190747 | 47 | 70 | 1.0 | 2.0 | 0.00 | 0.01 | 0.01 | 59 | 1007.2 |
| 20260502190245 | 47 | 237 | 1.0 | 2.0 | 0.00 | 0.01 | 0.01 | 58 | 1007.0 |
| 20260502185744 | 48 | 282 | 2.0 | 2.0 | 0.00 | 0.01 | 0.01 | 59 | 1007.1 |
| 20260502185241 | 48 | 243 | 1.0 | 1.0 | 0.00 | 0.01 | 0.01 | 54 | 1007.0 |
| 20260502184737 | 48 | 209 | 1.0 | 2.0 | 0.00 | 0.01 | 0.01 | 54 | 1007.1 |
| 20260502184233 | 48 | 271 | 1.0 | 1.0 | 0.00 | 0.01 | 0.01 | 57 | 1007.0 |
| 20260502183730 | 47 | 237 | 0.0 | 0.0 | 0.00 | 0.01 | 0.01 | 59 | 1007.1 |
| 20260502183225 | 47 | 20 | 1.0 | 2.0 | 0.00 | 0.01 | 0.01 | 56 | 1007.0 |
| 20260502182721 | 47 | 272 | 4.0 | 6.0 | 0.00 | 0.01 | 0.01 | 55 | 1007.1 |
| 20260502182217 | 48 | 272 | 5.0 | 6.0 | 0.00 | 0.01 | 0.01 | 54 | 1007.0 |
| 20260502181714 | 48 | 243 | 1.0 | 1.0 | 0.00 | 0.01 | 0.01 | 55 | 1007.2 |
| 20260502181214 | 47 | 256 | 3.0 | 3.0 | 0.00 | 0.01 | 0.01 | 55 | 1007.0 |
| 20260502180710 | 47 | 246 | 1.0 | 2.0 | 0.00 | 0.01 | 0.01 | 56 | 1007.1 |
| 20260502180208 | 46 | 279 | 2.0 | 2.0 | 0.00 | 0.01 | 0.01 | 57 | 1007.0 |
| 20260502170131 | 49 | 265 | 2.0 | 3.0 | 0.00 | 0.01 | 0.01 | 50 | 1007.0 |
| 20260502164118 | 45 | 271 | 0.0 | 1.0 | 0.00 | 0.01 | 0.01 | 60 | 1007.3 |
| 20260502163609 | 45 | 190 | 3.0 | 6.0 | 0.00 | 0.01 | 0.01 | 58 | 1007.4 |
| 20260502163105 | 46 | 273 | 3.0 | 3.0 | 0.00 | 0.01 | 0.01 | 57 | 1007.4 |
| 20260502162602 | 48 | 230 | 5.0 | 7.0 | 0.00 | 0.01 | 0.01 | 59 | 1007.5 |
| 20260502162059 | 46 | 253 | 1.0 | 1.0 | 0.00 | 0.01 | 0.01 | 63 | 1007.6 |
| 20260502161556 | 46 | 277 | 2.0 | 2.0 | 0.00 | 0.01 | 0.01 | 60 | 1007.5 |
| 20260502161053 | 47 | 258 | 5.0 | 7.0 | 0.00 | 0.01 | 0.01 | 57 | 1007.5 |
| 20260502160551 | 47 | 264 | 3.0 | 4.0 | 0.00 | 0.01 | 0.01 | 55 | 1007.6 |
| 20260502152004 | 50 | 157 | 1.0 | 2.0 | 0.00 | 0.01 | 0.01 | 57 | 1007.5 |
| 20260502151501 | 48 | 140 | 2.0 | 2.0 | 0.00 | 0.01 | 0.01 | 59 | 1007.4 |
| 20260502150958 | 49 | 2 | 5.0 | 7.0 | 0.00 | 0.01 | 0.01 | 53 | 1007.5 |
| 20260502150455 | 49 | 254 | 2.0 | 3.0 | 0.00 | 0.01 | 0.01 | 58 | 1007.6 |
| 20260502130341 | 40 | 243 | 1.0 | 2.0 | 0.00 | 0.00 | 0.00 | 76 | 1007.5 |
| 20260502123323 | 38 | 286 | 2.0 | 3.0 | 0.00 | 0.00 | 0.00 | 83 | 1007.1 |
| 20260502122820 | 38 | 279 | 1.0 | 1.0 | 0.00 | 0.00 | 0.00 | 85 | 1007.1 |
| 20260502122316 | 37 | 286 | 0.0 | 1.0 | 0.00 | 0.00 | 0.00 | 90 | 1006.9 |
| 20260502121815 | 36 | 256 | 1.0 | 2.0 | 0.00 | 0.00 | 0.00 | 91 | 1007.1 |
| 20260502121312 | 35 | 314 | 1.0 | 1.0 | 0.00 | 0.00 | 0.00 | 97 | 1006.8 |
| 20260502120808 | 35 | 281 | 0.0 | 1.0 | 0.00 | 0.00 | 0.00 | 99 | 1007.2 |
| 20260502120305 | 34 | 261 | 1.0 | 1.0 | 0.00 | 0.00 | 0.00 | 99 | 1007.0 |
| 20260502115803 | 34 | 25 | 1.0 | 2.0 | 0.00 | 0.00 | 0.00 | 99 | 1006.8 |
| 20260502115259 | 35 | 265 | 2.0 | 2.0 | 0.00 | 0.00 | 0.00 | 99 | 1006.8 |
| 20260502114755 | 33 | 272 | 0.0 | 0.0 | 0.00 | 0.00 | 0.00 | 99 | 1006.8 |
| 20260502114253 | 33 | 266 | 0.0 | 0.0 | 0.00 | 0.00 | 0.00 | 99 | 1006.7 |
| 20260502113750 | 32 | 279 | 0.0 | 0.0 | 0.00 | 0.00 | 0.00 | 99 | 1006.8 |
| 20260502113248 | 32 | 277 | 0.0 | 0.0 | 0.00 | 0.00 | 0.00 | 99 | 1006.9 |
| 20260502112746 | 31 | 273 | 0.0 | 0.0 | 0.00 | 0.00 | 0.00 | 99 | 1006.8 |
| 20260502112243 | 31 | 273 | 0.0 | 0.0 | 0.00 | 0.00 | 0.00 | 99 | 1006.7 |
| 20260502111739 | 30 | 277 | 0.0 | 0.0 | 0.00 | 0.00 | 0.00 | 99 | 1006.8 |
| 20260502111237 | 30 | 271 | 0.0 | 0.0 | 0.00 | 0.00 | 0.00 | 99 | 1006.9 |
| 20260502110734 | 29 | 274 | 0.0 | 0.0 | 0.00 | 0.00 | 0.00 | 99 | 1006.8 |
| 20260502110232 | 29 | 278 | 0.0 | 0.0 | 0.00 | 0.00 | 0.00 | 99 | 1006.7 |
| 20260502105730 | 29 | 274 | 0.0 | 0.0 | 0.00 | 0.00 | 0.00 | 99 | 1006.8 |
| 20260502105226 | 29 | 274 | 0.0 | 0.0 | 0.00 | 0.00 | 0.00 | 99 | 1006.6 |
| 20260502104724 | 29 | 277 | 0.0 | 0.0 | 0.00 | 0.00 | 0.00 | 99 | 1006.6 |
| 20260502104221 | 29 | 277 | 0.0 | 0.0 | 0.00 | 0.00 | 0.00 | 99 | 1006.6 |
| 20260502103719 | 29 | 277 | 0.0 | 0.0 | 0.00 | 0.00 | 0.00 | 99 | 1006.6 |
| 20260502103216 | 29 | 277 | 0.0 | 0.0 | 0.00 | 0.00 | 0.00 | 99 | 1006.8 |
| 20260502102713 | 29 | 277 | 0.0 | 0.0 | 0.00 | 0.00 | 0.00 | 99 | 1006.6 |
| 20260502102209 | 29 | 278 | 0.0 | 0.0 | 0.00 | 0.00 | 0.00 | 99 | 1006.8 |
| 20260502101708 | 29 | 277 | 0.0 | 0.0 | 0.00 | 0.00 | 0.00 | 99 | 1006.7 |
| 20260502101206 | 29 | 277 | 0.0 | 0.0 | 0.00 | 0.00 | 0.00 | 99 | 1006.9 |
| 20260502100703 | 29 | 277 | 0.0 | 0.0 | 0.00 | 0.00 | 0.00 | 99 | 1006.7 |
| 20260502100201 | 29 | 277 | 0.0 | 0.0 | 0.00 | 0.00 | 0.00 | 99 | 1006.8 |
| 20260502091136 | 30 | 277 | 0.0 | 0.0 | 0.00 | 0.00 | 0.00 | 99 | 1006.8 |
| 20260502090632 | 30 | 277 | 0.0 | 0.0 | 0.00 | 0.00 | 0.00 | 99 | 1006.7 |
| 20260502090130 | 30 | 277 | 0.0 | 0.0 | 0.00 | 0.00 | 0.00 | 99 | 1006.7 |
| 20260502071527 | 32 | 276 | 0.0 | 0.0 | 0.00 | 0.00 | 0.00 | 99 | 1006.3 |
| 20260502071026 | 33 | 276 | 0.0 | 0.0 | 0.00 | 0.00 | 0.00 | 99 | 1006.4 |
| 20260502070523 | 33 | 272 | 0.0 | 0.0 | 0.00 | 0.00 | 0.00 | 99 | 1006.4 |
| 20260502070021 | 33 | 273 | 0.0 | 0.0 | 0.00 | 0.00 | 0.00 | 99 | 1006.6 |
| 20260502065519 | 33 | 265 | 0.0 | 0.0 | 0.00 | 0.00 | 0.00 | 99 | 1006.6 |
| 20260502065017 | 33 | 279 | 0.0 | 0.0 | 0.00 | 0.00 | 0.00 | 99 | 1006.6 |
| 20260502064515 | 33 | 281 | 0.0 | 0.0 | 0.00 | 0.00 | 0.00 | 99 | 1006.8 |
| 20260502064012 | 33 | 279 | 0.0 | 0.0 | 0.00 | 0.00 | 0.00 | 99 | 1006.9 |
| 20260502063510 | 33 | 279 | 0.0 | 0.0 | 0.00 | 0.00 | 0.00 | 99 | 1006.8 |
| 20260502063007 | 33 | 282 | 0.0 | 0.0 | 0.00 | 0.00 | 0.00 | 99 | 1006.7 |
| 20260502062503 | 33 | 275 | 0.0 | 0.0 | 0.00 | 0.00 | 0.00 | 99 | 1006.7 |
| 20260502062003 | 34 | 274 | 0.0 | 0.0 | 0.00 | 0.00 | 0.00 | 99 | 1006.7 |
| 20260502061500 | 34 | 277 | 0.0 | 0.0 | 0.00 | 0.00 | 0.00 | 99 | 1006.7 |
| 20260502060955 | 34 | 277 | 0.0 | 0.0 | 0.00 | 0.00 | 0.00 | 99 | 1007.0 |
| 20260502060451 | 35 | 277 | 0.0 | 0.0 | 0.00 | 0.00 | 0.00 | 99 | 1006.9 |
| 20260502055948 | 35 | 279 | 0.0 | 0.0 | 0.00 | 0.00 | 0.00 | 99 | 1006.8 |
| 20260502055446 | 36 | 273 | 0.0 | 0.0 | 0.00 | 0.00 | 0.00 | 99 | 1007.0 |
| 20260502054940 | 36 | 276 | 0.0 | 0.0 | 0.00 | 0.00 | 0.00 | 99 | 1007.0 |
| 20260502054438 | 35 | 277 | 0.0 | 0.0 | 0.00 | 0.00 | 0.00 | 99 | 1006.8 |
| 20260502053935 | 35 | 274 | 0.0 | 0.0 | 0.00 | 0.00 | 0.00 | 99 | 1006.8 |
| 20260502053432 | 35 | 274 | 0.0 | 0.0 | 0.00 | 0.00 | 0.00 | 99 | 1007.1 |
| 20260502052930 | 35 | 278 | 0.0 | 0.0 | 0.00 | 0.00 | 0.00 | 99 | 1007.2 |
| 20260502052428 | 34 | 275 | 0.0 | 0.0 | 0.00 | 0.00 | 0.00 | 99 | 1006.8 |
| 20260502051926 | 35 | 275 | 0.0 | 0.0 | 0.00 | 0.00 | 0.00 | 99 | 1006.9 |
| 20260502051423 | 35 | 275 | 0.0 | 0.0 | 0.00 | 0.00 | 0.00 | 99 | 1006.9 |
| 20260502050920 | 36 | 274 | 0.0 | 0.0 | 0.00 | 0.00 | 0.00 | 99 | 1007.0 |
| 20260502050416 | 36 | 275 | 0.0 | 0.0 | 0.00 | 0.00 | 0.00 | 99 | 1006.9 |
| 20260502045914 | 37 | 276 | 0.0 | 0.0 | 0.00 | 0.00 | 0.00 | 99 | 1006.9 |
| 20260502045411 | 37 | 276 | 0.0 | 0.0 | 0.00 | 0.00 | 0.00 | 99 | 1007.0 |
| 20260502044908 | 37 | 277 | 0.0 | 0.0 | 0.00 | 0.00 | 0.00 | 99 | 1006.7 |
| 20260502044403 | 36 | 276 | 0.0 | 0.0 | 0.00 | 0.00 | 0.00 | 99 | 1006.7 |
| 20260502043900 | 36 | 277 | 0.0 | 0.0 | 0.00 | 0.00 | 0.00 | 99 | 1006.8 |
| 20260502043358 | 35 | 275 | 0.0 | 0.0 | 0.00 | 0.00 | 0.00 | 99 | 1006.8 |
| 20260502042857 | 35 | 276 | 0.0 | 0.0 | 0.00 | 0.00 | 0.00 | 99 | 1006.6 |
| 20260502042355 | 34 | 274 | 0.0 | 0.0 | 0.00 | 0.00 | 0.00 | 99 | 1006.8 |
| 20260502041852 | 35 | 274 | 0.0 | 0.0 | 0.00 | 0.00 | 0.00 | 99 | 1006.8 |
| 20260502041349 | 35 | 274 | 0.0 | 0.0 | 0.00 | 0.00 | 0.00 | 99 | 1007.0 |
| 20260502040847 | 35 | 274 | 0.0 | 0.0 | 0.00 | 0.00 | 0.00 | 99 | 1006.8 |
| 20260502040343 | 35 | 273 | 0.0 | 0.0 | 0.00 | 0.00 | 0.00 | 99 | 1006.7 |
| 20260502035839 | 35 | 278 | 0.0 | 0.0 | 0.00 | 0.13 | 0.13 | 99 | 1006.8 |
| 20260502035336 | 35 | 275 | 0.0 | 0.0 | 0.00 | 0.13 | 0.13 | 99 | 1006.9 |
| 20260502034834 | 36 | 275 | 0.0 | 0.0 | 0.00 | 0.13 | 0.13 | 98 | 1006.9 |
| 20260502034332 | 36 | 275 | 0.0 | 0.0 | 0.00 | 0.13 | 0.13 | 98 | 1006.9 |
| 20260502033830 | 36 | 276 | 0.0 | 0.0 | 0.00 | 0.13 | 0.13 | 98 | 1006.8 |
| 20260502033327 | 36 | 277 | 0.0 | 0.0 | 0.00 | 0.13 | 0.13 | 98 | 1006.9 |
| 20260502032824 | 37 | 282 | 0.0 | 0.0 | 0.00 | 0.13 | 0.13 | 98 | 1006.9 |
| 20260502032320 | 37 | 275 | 0.0 | 0.0 | 0.00 | 0.13 | 0.13 | 98 | 1007.2 |
| 20260502031818 | 37 | 280 | 0.0 | 0.0 | 0.00 | 0.13 | 0.13 | 98 | 1006.9 |
| 20260502031316 | 38 | 276 | 0.0 | 0.0 | 0.00 | 0.13 | 0.13 | 98 | 1007.3 |
| 20260502030814 | 38 | 271 | 0.0 | 0.0 | 0.00 | 0.13 | 0.13 | 97 | 1007.1 |
| 20260502030312 | 38 | 272 | 0.0 | 0.0 | 0.00 | 0.13 | 0.13 | 97 | 1007.2 |
| 20260502025809 | 38 | 275 | 0.0 | 0.0 | 0.00 | 0.13 | 0.13 | 97 | 1007.2 |
| 20260502025307 | 39 | 278 | 0.0 | 0.0 | 0.00 | 0.13 | 0.13 | 97 | 1007.3 |
| 20260502024804 | 39 | 275 | 0.0 | 0.0 | 0.00 | 0.13 | 0.13 | 97 | 1007.0 |
| 20260502024302 | 39 | 273 | 0.0 | 0.0 | 0.00 | 0.13 | 0.13 | 96 | 1007.0 |
| 20260502023800 | 39 | 282 | 0.0 | 0.0 | 0.00 | 0.13 | 0.13 | 96 | 1006.9 |
| 20260502023257 | 39 | 273 | 0.0 | 0.0 | 0.00 | 0.13 | 0.13 | 95 | 1007.0 |
| 20260502022755 | 40 | 277 | 0.0 | 0.0 | 0.00 | 0.13 | 0.13 | 95 | 1007.0 |
| 20260502022250 | 40 | 280 | 0.0 | 0.0 | 0.00 | 0.13 | 0.13 | 94 | 1006.7 |
| 20260502021748 | 40 | 275 | 0.0 | 0.0 | 0.00 | 0.13 | 0.13 | 94 | 1006.8 |
| 20260502021245 | 41 | 277 | 0.0 | 0.0 | 0.00 | 0.13 | 0.13 | 93 | 1006.8 |
| 20260502020742 | 41 | 278 | 0.0 | 0.0 | 0.00 | 0.13 | 0.13 | 93 | 1006.6 |
| 20260502020239 | 41 | 279 | 0.0 | 0.0 | 0.00 | 0.13 | 0.13 | 92 | 1006.8 |
| 20260502015737 | 42 | 278 | 0.0 | 0.0 | 0.00 | 0.13 | 0.13 | 92 | 1006.9 |
| 20260502015233 | 42 | 279 | 0.0 | 0.0 | 0.00 | 0.13 | 0.13 | 92 | 1006.7 |
| 20260502014731 | 42 | 274 | 0.0 | 0.0 | 0.00 | 0.13 | 0.13 | 92 | 1006.5 |
| 20260502014228 | 42 | 293 | 0.0 | 0.0 | 0.00 | 0.13 | 0.13 | 91 | 1006.4 |
| 20260502013724 | 42 | 272 | 0.0 | 0.0 | 0.00 | 0.13 | 0.13 | 90 | 1006.5 |
| 20260502013219 | 42 | 26 | 1.0 | 2.0 | 0.00 | 0.13 | 0.13 | 90 | 1006.4 |
| 20260502012717 | 42 | 301 | 0.0 | 1.0 | 0.00 | 0.13 | 0.13 | 89 | 1006.2 |
| 20260502012215 | 42 | 284 | 0.0 | 1.0 | 0.00 | 0.13 | 0.13 | 88 | 1006.1 |
| 20260502011711 | 42 | 349 | 1.0 | 1.0 | 0.00 | 0.13 | 0.13 | 88 | 1005.9 |
| 20260502011207 | 42 | 1 | 1.0 | 1.0 | 0.00 | 0.13 | 0.13 | 88 | 1005.8 |
| 20260502010705 | 43 | 200 | 0.0 | 1.0 | 0.05 | 0.13 | 0.13 | 86 | 1005.8 |
| 20260502010201 | 44 | 142 | 1.0 | 2.0 | 0.05 | 0.13 | 0.13 | 82 | 1005.7 |
| 20260502005658 | 44 | 222 | 1.0 | 2.0 | 0.00 | 0.12 | 0.12 | 80 | 1005.5 |
| 20260502005156 | 44 | 287 | 0.0 | 0.0 | 0.00 | 0.12 | 0.12 | 82 | 1005.7 |
| 20260502004652 | 45 | 333 | 1.0 | 2.0 | 0.00 | 0.12 | 0.12 | 81 | 1005.6 |
| 20260502004149 | 45 | 318 | 0.0 | 1.0 | 0.00 | 0.12 | 0.12 | 80 | 1005.5 |
| 20260502003646 | 45 | 273 | 0.0 | 0.0 | 0.00 | 0.12 | 0.12 | 79 | 1005.8 |
| 20260502003143 | 45 | 285 | 0.0 | 0.0 | 0.00 | 0.12 | 0.12 | 79 | 1005.6 |
| 20260502002639 | 45 | 281 | 0.0 | 0.0 | 0.00 | 0.12 | 0.12 | 79 | 1005.5 |
| 20260502002137 | 45 | 272 | 0.0 | 0.0 | 0.00 | 0.12 | 0.12 | 79 | 1005.6 |
| 20260502001634 | 45 | 270 | 0.0 | 0.0 | 0.00 | 0.12 | 0.12 | 79 | 1005.6 |
| 20260502001132 | 45 | 270 | 0.0 | 0.0 | 0.00 | 0.12 | 0.12 | 80 | 1005.4 |
| 20260502000630 | 45 | 274 | 0.0 | 0.0 | 0.00 | 0.12 | 0.12 | 79 | 1005.4 |
| 20260502000127 | 45 | 279 | 0.0 | 0.0 | 0.00 | 0.12 | 0.12 | 78 | 1005.2 |
| 20260501235623 | 46 | 278 | 0.0 | 0.0 | 0.00 | 0.12 | 0.12 | 76 | 1005.1 |
| 20260501235119 | 47 | 277 | 0.0 | 0.0 | 0.00 | 0.12 | 0.12 | 75 | 1005.1 |
| 20260501234614 | 47 | 266 | 0.0 | 0.0 | 0.00 | 0.12 | 0.12 | 74 | 1005.0 |
| 20260501234112 | 48 | 274 | 0.0 | 1.0 | 0.00 | 0.12 | 0.12 | 72 | 1004.8 |
| 20260501233610 | 48 | 268 | 0.0 | 1.0 | 0.00 | 0.12 | 0.12 | 71 | 1005.0 |